BAW719 EGLL-LTFM

Flight info

Callsign BAW719
Flight time N/A
Altitude 33000
Route DET L6 DVR UL9 KONAN DCT KOK UL607 FERDI DCT MATUG DCT AMASI DCT BOMBI DCT TENLO DCT DEXIT DCT BEGLA/N0454F350 DCT TEGRI DCT NEKUL DCT LAMIT DCT RASUB DCT BULEN DCT BUVAK DCT RIXEN
Aircraft A21N/M-SDE3FGHIRWY/LB1

Departure

Time N/A
Airport London Heathrow Airport (EGLL)

Arrival

Time 2026-05-03 20:51
Airport İstanbul Airport (LTFM)
Time Latitude Longitude Altitude Speed Heading
2026-05-03 20:15 43.37410 26.62939 33129 ft 442 kts 121°
2026-05-03 20:15 43.34098 26.70014 33133 ft 442 kts 121°
2026-05-03 20:16 43.30792 26.77070 33137 ft 442 kts 121°
2026-05-03 20:16 43.27461 26.84150 33129 ft 441 kts 122°
2026-05-03 20:17 43.24154 26.91151 33130 ft 442 kts 122°
2026-05-03 20:17 43.20821 26.98187 33131 ft 441 kts 122°
2026-05-03 20:18 43.17474 27.05234 33131 ft 441 kts 122°
2026-05-03 20:18 43.14128 27.12266 33136 ft 441 kts 122°
2026-05-03 20:19 43.10819 27.19203 33135 ft 438 kts 122°
2026-05-03 20:19 43.07486 27.26173 33135 ft 437 kts 122°
2026-05-03 20:20 43.04170 27.33091 33128 ft 435 kts 122°
2026-05-03 20:20 43.00858 27.39956 33128 ft 434 kts 123°
2026-05-03 20:21 42.97178 27.46495 33125 ft 432 kts 129°
2026-05-03 20:21 42.95198 27.49511 32935 ft 433 kts 131°
2026-05-03 20:21 42.93175 27.52529 32767 ft 431 kts 131°
2026-05-03 20:21 42.91160 27.55532 32593 ft 429 kts 131°
2026-05-03 20:22 42.89128 27.58554 32408 ft 427 kts 132°
2026-05-03 20:22 42.87117 27.61523 32233 ft 425 kts 132°
2026-05-03 20:22 42.85046 27.64578 32042 ft 423 kts 132°
2026-05-03 20:22 42.83050 27.67535 31858 ft 423 kts 132°
2026-05-03 20:23 42.81069 27.70481 31683 ft 421 kts 133°
2026-05-03 20:23 42.79076 27.73444 31513 ft 420 kts 133°
2026-05-03 20:23 42.77105 27.76372 31292 ft 419 kts 133°
2026-05-03 20:23 42.75151 27.79266 31071 ft 418 kts 133°
2026-05-03 20:24 42.73208 27.82143 30751 ft 413 kts 134°
2026-05-03 20:24 42.71283 27.84984 30434 ft 407 kts 134°
2026-05-03 20:24 42.69350 27.87834 30169 ft 409 kts 134°
2026-05-03 20:24 42.67434 27.90657 29907 ft 410 kts 134°
2026-05-03 20:25 42.65501 27.93502 29639 ft 411 kts 134°
2026-05-03 20:25 42.63561 27.96351 29377 ft 413 kts 134°
2026-05-03 20:25 42.61603 27.99225 29112 ft 415 kts 134°
2026-05-03 20:25 42.59640 28.02107 28848 ft 416 kts 134°
2026-05-03 20:26 42.57683 28.04976 28589 ft 417 kts 134°
2026-05-03 20:26 42.55707 28.07869 28316 ft 418 kts 134°
2026-05-03 20:26 42.53754 28.10727 28056 ft 419 kts 133°
2026-05-03 20:26 42.51774 28.13621 27795 ft 421 kts 133°
2026-05-03 20:27 42.49764 28.16556 27530 ft 422 kts 133°
2026-05-03 20:27 42.47780 28.19450 27272 ft 424 kts 133°
2026-05-03 20:27 42.45763 28.22391 27004 ft 426 kts 133°
2026-05-03 20:27 42.43738 28.25339 26745 ft 428 kts 133°
2026-05-03 20:28 42.41712 28.28284 26483 ft 429 kts 133°
2026-05-03 20:28 42.39688 28.31226 26223 ft 431 kts 133°
2026-05-03 20:28 42.37656 28.34178 25966 ft 432 kts 133°
2026-05-03 20:28 42.35606 28.37145 25709 ft 434 kts 133°
2026-05-03 20:29 42.33279 28.39720 25404 ft 436 kts 150°
2026-05-03 20:29 42.30384 28.41073 25152 ft 442 kts 168°
2026-05-03 20:29 42.27323 28.41217 24893 ft 447 kts 184°
2026-05-03 20:29 42.24268 28.40379 24643 ft 451 kts 191°
2026-05-03 20:30 42.21177 28.39809 24374 ft 449 kts 180°
2026-05-03 20:30 42.18070 28.39878 24132 ft 450 kts 175°
2026-05-03 20:30 42.14912 28.40072 23870 ft 453 kts 175°
2026-05-03 20:30 42.11778 28.40222 23572 ft 455 kts 176°
2026-05-03 20:31 42.08577 28.40305 23138 ft 457 kts 177°
2026-05-03 20:31 42.05436 28.40333 22541 ft 458 kts 178°
2026-05-03 20:31 42.02253 28.40327 21860 ft 455 kts 178°
2026-05-03 20:31 41.99113 28.40299 21151 ft 453 kts 178°
2026-05-03 20:32 41.95961 28.40260 20422 ft 452 kts 178°
2026-05-03 20:32 41.92816 28.40214 19702 ft 450 kts 178°
2026-05-03 20:32 41.89727 28.40165 18968 ft 445 kts 178°
2026-05-03 20:32 41.86638 28.40113 18257 ft 435 kts 178°
2026-05-03 20:33 41.83659 28.40064 17584 ft 427 kts 178°
2026-05-03 20:33 41.80740 28.40014 16895 ft 420 kts 178°
2026-05-03 20:33 41.77819 28.39967 16205 ft 413 kts 178°
2026-05-03 20:33 41.74999 28.39922 15535 ft 407 kts 178°
2026-05-03 20:34 41.72165 28.39875 14883 ft 401 kts 178°
2026-05-03 20:34 41.69445 28.39830 14322 ft 392 kts 178°
2026-05-03 20:34 41.66729 28.39784 13744 ft 382 kts 178°
2026-05-03 20:34 41.64103 28.39740 13199 ft 374 kts 178°
2026-05-03 20:35 41.61533 28.39696 12665 ft 366 kts 178°
2026-05-03 20:35 41.59044 28.39656 12157 ft 356 kts 178°
2026-05-03 20:35 41.56603 28.39615 11670 ft 345 kts 177°
2026-05-03 20:35 41.54246 28.39574 11192 ft 335 kts 177°
2026-05-03 20:36 41.51916 28.39535 10904 ft 323 kts 177°
2026-05-03 20:36 41.49618 28.39500 10751 ft 323 kts 177°
2026-05-03 20:36 41.47344 28.39465 10606 ft 323 kts 177°
2026-05-03 20:36 41.45094 28.39431 10422 ft 322 kts 177°
2026-05-03 20:37 41.42876 28.39395 10268 ft 318 kts 177°
2026-05-03 20:37 41.40665 28.39358 9736 ft 317 kts 176°
2026-05-03 20:37 41.38461 28.39324 9051 ft 317 kts 176°
2026-05-03 20:37 41.36279 28.39289 8357 ft 316 kts 176°
2026-05-03 20:38 41.34114 28.39254 7721 ft 312 kts 176°
2026-05-03 20:38 41.31940 28.39218 7076 ft 310 kts 176°
2026-05-03 20:38 41.29808 28.39183 6423 ft 308 kts 176°
2026-05-03 20:38 41.27683 28.39149 5786 ft 305 kts 176°
2026-05-03 20:39 41.25557 28.39115 5233 ft 300 kts 176°
2026-05-03 20:39 41.23483 28.39081 5006 ft 301 kts 176°
2026-05-03 20:39 41.21392 28.39048 5006 ft 299 kts 176°
2026-05-03 20:39 41.19320 28.39014 4998 ft 297 kts 176°
2026-05-03 20:40 41.17240 28.38981 4988 ft 298 kts 176°
2026-05-03 20:40 41.15155 28.38948 4989 ft 298 kts 176°
2026-05-03 20:40 41.13098 28.38915 4996 ft 298 kts 176°
2026-05-03 20:40 41.11080 28.39258 4959 ft 286 kts 150°
2026-05-03 20:41 41.09548 28.40763 4978 ft 266 kts 120°
2026-05-03 20:41 41.08487 28.42755 4980 ft 265 kts 115°
2026-05-03 20:41 41.07451 28.44778 4980 ft 266 kts 116°
2026-05-03 20:41 41.06335 28.46776 4964 ft 267 kts 119°
2026-05-03 20:42 41.05145 28.48754 4970 ft 269 kts 121°
2026-05-03 20:42 41.03934 28.50670 4982 ft 269 kts 122°
2026-05-03 20:42 41.02647 28.52652 4971 ft 270 kts 122°
2026-05-03 20:42 41.01395 28.54579 4968 ft 268 kts 119°
2026-05-03 20:43 41.00660 28.56742 4936 ft 244 kts 85°
2026-05-03 20:43 41.00787 28.58949 4963 ft 239 kts 75°
2026-05-03 20:43 41.01027 28.61136 4968 ft 241 kts 75°
2026-05-03 20:43 41.01219 28.63377 4975 ft 241 kts 77°
2026-05-03 20:44 41.01354 28.65595 4959 ft 225 kts 79°
2026-05-03 20:44 41.01454 28.67685 4957 ft 215 kts 78°
2026-05-03 20:44 41.01543 28.69678 4948 ft 205 kts 78°
2026-05-03 20:44 41.01851 28.71463 4924 ft 191 kts 53°
2026-05-03 20:45 41.02812 28.72591 4966 ft 174 kts 25°
2026-05-03 20:45 41.03977 28.72990 4758 ft 166 kts 12°
2026-05-03 20:45 41.05158 28.73103 4522 ft 161 kts
2026-05-03 20:45 41.06308 28.73124 4287 ft 157 kts
2026-05-03 20:46 41.07437 28.73121 4048 ft 156 kts
2026-05-03 20:46 41.08564 28.73110 3816 ft 154 kts
2026-05-03 20:46 41.09678 28.73094 3588 ft 153 kts
2026-05-03 20:46 41.10771 28.73074 3369 ft 153 kts
2026-05-03 20:47 41.11849 28.73054 3156 ft 152 kts
2026-05-03 20:47 41.12953 28.73033 2944 ft 152 kts
2026-05-03 20:47 41.14003 28.73010 2747 ft 151 kts
2026-05-03 20:47 41.15090 28.72989 2542 ft 152 kts
2026-05-03 20:48 41.16159 28.72967 2330 ft 141 kts
2026-05-03 20:48 41.17103 28.72944 2094 ft 121 kts
2026-05-03 20:48 41.17952 28.72928 1948 ft 117 kts
2026-05-03 20:48 41.18810 28.72912 1794 ft 116 kts
2026-05-03 20:49 41.19661 28.72899 1640 ft 117 kts
2026-05-03 20:49 41.20497 28.72881 1488 ft 117 kts
2026-05-03 20:49 41.21334 28.72865 1310 ft 115 kts
2026-05-03 20:49 41.22154 28.72850 1158 ft 115 kts
2026-05-03 20:50 41.22989 28.72833 993 ft 115 kts
2026-05-03 20:50 41.23840 28.72816 833 ft 117 kts
2026-05-03 20:50 41.24678 28.72800 669 ft 117 kts
2026-05-03 20:50 41.25538 28.72783 499 ft 118 kts
2026-05-03 20:51 41.26388 28.72767 342 ft 117 kts
2026-05-03 20:51 41.27059 28.72764 334 ft 62 kts
2026-05-03 20:51 41.27418 28.72756 334 ft 44 kts 359°
2026-05-03 20:51 41.27704 28.72751 334 ft 37 kts
2026-05-03 20:52 41.27872 28.72751 334 ft 17 kts 358°
2026-05-03 20:52 41.28009 28.72746 334 ft 21 kts
2026-05-03 20:52 41.28157 28.72751 334 ft 20 kts
2026-05-03 20:52 41.28300 28.72779 334 ft 18 kts 17°
2026-05-03 20:53 41.28405 28.72845 334 ft 15 kts 28°
2026-05-03 20:53 41.28444 28.72930 334 ft 8 kts 115°
2026-05-03 20:53 41.28389 28.72959 334 ft 9 kts 173°
2026-05-03 20:53 41.28311 28.72967 334 ft 11 kts 178°
2026-05-03 20:54 41.28222 28.72969 334 ft 13 kts 179°
2026-05-03 20:54 41.28011 28.72970 334 ft 15 kts 180°
2026-05-03 20:54 41.27900 28.72971 334 ft 15 kts 179°
2026-05-03 20:55 41.27786 28.72974 334 ft 16 kts 179°
2026-05-03 20:55 41.27672 28.72976 334 ft 16 kts 179°
2026-05-03 20:55 41.27554 28.72979 334 ft 17 kts 179°
2026-05-03 20:55 41.27433 28.72981 334 ft 17 kts 179°
2026-05-03 20:56 41.27309 28.72983 334 ft 17 kts 179°
2026-05-03 20:56 41.27184 28.72985 334 ft 18 kts 179°
2026-05-03 20:56 41.27053 28.72988 334 ft 18 kts 179°
2026-05-03 20:56 41.26923 28.72993 334 ft 18 kts 179°
2026-05-03 20:57 41.26791 28.72994 334 ft 18 kts 180°
2026-05-03 20:57 41.26669 28.72994 334 ft 14 kts 180°
2026-05-03 20:57 41.26596 28.73027 334 ft 11 kts 121°
2026-05-03 20:57 41.26588 28.73124 334 ft 10 kts 89°
2026-05-03 20:58 41.26590 28.73216 334 ft 9 kts 88°
2026-05-03 20:58 41.26590 28.73298 334 ft 8 kts 97°
2026-05-03 20:58 41.26562 28.73356 334 ft 7 kts 148°
2026-05-03 20:58 41.26520 28.73406 334 ft 7 kts 105°
2026-05-03 20:59 41.26534 28.73463 334 ft 6 kts 66°
2026-05-03 20:59 41.26545 28.73505 334 ft 1 kts 71°
2026-05-03 20:59 41.26546 28.73509 334 ft 0 kts 71°